GW3300 Weather Reports


time (UTC)temp
C
wind
direction
speed
KPH
gust
KPH
rain 1hr
cm
rain 24hr
cm
rain mn
cm
humidity
%
barometer
mb
20260505091523 11 0.0 1.6 0.00 0.00 0.00 93 1014.6
20260505091022 11 0.0 0.0 0.00 0.00 0.00 93 1014.6
20260505090523 11 0.0 0.0 0.00 0.00 0.00 93 1014.7
20260505090026 11 0.0 0.0 0.00 0.00 0.00 93 1014.5
20260505085522 11 0.0 0.0 0.00 0.00 0.00 93 1014.5
20260505085027 11 0.0 0.0 0.00 0.00 0.00 93 1014.6
20260505084525 11 0.0 1.6 0.00 0.00 0.00 93 1014.4
20260505084022 11 158 0.0 3.2 0.00 0.00 0.00 94 1014.6
20260505083522 11 0.0 0.0 0.00 0.00 0.00 94 1014.5
20260505083023 11 0.0 0.0 0.00 0.00 0.00 93 1014.4
20260505082523 11 0.0 0.0 0.00 0.00 0.00 93 1014.4
20260505082023 11 0.0 0.0 0.00 0.00 0.00 93 1014.3
20260505081525 11 0.0 0.0 0.00 0.00 0.00 93 1014.4
20260505081108 11 137 0.0 1.6 0.00 0.00 0.00 93 1014.2
20260505080522 11 0.0 0.0 0.00 0.00 0.00 93 1014.3
20260505080024 11 0.0 1.6 0.00 0.00 0.00 93 1014.3
20260505075529 11 0.0 0.0 0.00 0.00 0.00 93 1014.2
20260505075028 11 0.0 0.0 0.00 0.00 0.00 93 1014.2
20260505074523 11 0.0 1.6 0.00 0.00 0.00 92 1014.1
20260505074022 11 0.0 0.0 0.00 0.00 0.00 92 1014.1
20260505073525 11 0.0 1.6 0.00 0.00 0.00 91 1014.0
20260505073043 11 188 0.0 3.2 0.00 0.00 0.00 91 1013.9
20260505072524 11 0.0 1.6 0.00 0.00 0.00 91 1013.7
20260505072020 11 0.0 1.6 0.00 0.00 0.00 90 1013.7
20260505071526 11 0.0 1.6 0.00 0.00 0.00 90 1013.7
20260505071042 11 141 0.0 1.6 0.00 0.00 0.00 90 1013.6
20260505070524 11 0.0 1.6 0.00 0.00 0.00 90 1013.6
20260505070045 11 0.0 1.6 0.00 0.00 0.00 90 1013.5
20260505065522 11 0.0 1.6 0.00 0.00 0.00 89 1013.5
20260505065025 12 36 0.0 1.6 0.00 0.00 0.00 89 1013.5
20260505064524 12 0.0 0.0 0.00 0.00 0.00 88 1013.4
20260505064019 12 136 0.0 1.6 0.00 0.00 0.00 88 1013.4
20260505063525 12 0.0 1.6 0.00 0.00 0.00 87 1013.3
20260505063019 12 0.0 1.6 0.00 0.00 0.00 86 1013.2
20260505062523 12 154 0.0 3.2 0.00 0.00 0.00 86 1013.2
20260505062023 12 235 0.0 3.2 0.00 0.00 0.00 85 1013.1
20260505061525 12 142 0.0 3.2 0.00 0.00 0.00 85 1013.1
20260505061124 13 230 0.0 1.6 0.00 0.00 0.00 85 1013.0
20260505060520 13 0.0 3.2 0.00 0.00 0.00 85 1012.9
20260505060044 13 354 0.0 3.2 0.00 0.00 0.00 84 1012.9
20260505055604 13 0.0 0.0 0.00 0.00 0.00 84 1012.9
20260505055040 13 0.0 0.0 0.00 0.00 0.00 84 1012.9
20260505054530 13 0.0 0.0 0.00 0.00 0.00 83 1012.7
20260505054023 13 0.0 0.0 0.00 0.00 0.00 82 1012.8
20260505053519 13 0.0 1.6 0.00 0.00 0.00 82 1012.8
20260505053020 14 171 0.0 1.6 0.00 0.00 0.00 81 1012.7
20260505052523 14 0.0 0.0 0.00 0.00 0.00 81 1012.7
20260505052046 14 0.0 1.6 0.00 0.00 0.00 80 1012.6
20260505051526 14 0.0 0.0 0.00 0.00 0.00 80 1012.6
20260505051023 15 303 0.0 3.2 0.00 0.00 0.00 79 1012.6
20260505050526 15 149 0.0 1.6 0.00 0.00 0.00 79 1012.6
20260505041532 17 233 1.6 3.2 0.00 0.00 0.00 72 1012.0
20260505041023 17 229 1.6 4.8 0.00 0.00 0.00 71 1011.9
20260505040520 17 318 1.6 3.2 0.00 0.00 0.00 70 1011.8
20260505040023 17 267 1.6 3.2 0.00 0.00 0.00 72 1011.7
20260505035544 17 74 0.0 3.2 0.00 0.00 0.00 72 1011.7
20260505035020 17 311 1.6 3.2 0.00 0.00 0.00 72 1011.5
20260505034540 17 343 0.0 1.6 0.00 0.00 0.00 71 1011.6
20260505034026 17 0.0 0.0 0.00 0.00 0.00 70 1011.4
20260505033603 18 188 0.0 1.6 0.00 0.00 0.00 69 1011.4
20260505033020 18 75 0.0 1.6 0.00 0.00 0.00 68 1011.4
20260505032523 18 193 0.0 3.2 0.00 0.00 0.00 68 1011.3
20260505032023 18 87 0.0 3.2 0.00 0.00 0.00 67 1011.2
20260505031524 18 210 0.0 3.2 0.00 0.00 0.00 66 1011.1
20260505031019 19 178 0.0 3.2 0.00 0.00 0.00 65 1011.2
20260505030543 19 191 0.0 3.2 0.00 0.00 0.00 64 1011.1
20260505030019 19 131 0.0 3.2 0.00 0.00 0.00 63 1011.1
20260505025520 20 100 0.0 3.2 0.00 0.00 0.00 63 1011.0
20260505025020 20 86 1.6 6.4 0.00 0.00 0.00 63 1010.9
20260505024524 20 174 1.6 4.8 0.00 0.00 0.00 62 1010.8
20260505024024 20 80 1.6 4.8 0.00 0.00 0.00 62 1010.7
20260505023523 21 309 1.6 3.2 0.00 0.00 0.00 62 1010.7
20260505023020 21 114 1.6 3.2 0.00 0.00 0.00 66 1010.6
20260505022520 21 209 0.0 3.2 0.00 0.00 0.00 65 1010.5
20260505022020 21 243 1.6 4.8 0.00 0.00 0.00 65 1010.6
20260505021524 21 222 0.0 3.2 0.00 0.00 0.00 66 1010.6
20260505021024 21 15 0.0 3.2 0.00 0.00 0.00 64 1010.6
20260505020524 21 209 1.6 4.8 0.00 0.00 0.00 64 1010.7
20260505020039 21 300 1.6 4.8 0.00 0.00 0.00 63 1010.6
20260505015601 21 315 3.2 4.8 0.00 0.00 0.00 64 1010.7
20260505015024 21 340 1.6 4.8 0.00 0.00 0.00 66 1010.6
20260505014520 21 45 1.6 3.2 0.00 0.00 0.00 67 1010.6
20260505014020 21 328 1.6 3.2 0.00 0.00 0.00 67 1010.6
20260505013523 21 167 1.6 3.2 0.00 0.00 0.00 65 1010.7
20260505013059 21 162 0.0 3.2 0.00 0.00 0.00 66 1010.7
20260505012519 21 305 1.6 3.2 0.00 0.00 0.00 66 1010.6
20260505012020 22 92 1.6 3.2 0.00 0.00 0.00 64 1010.7
20260505011544 22 23 3.2 6.4 0.00 0.00 0.00 63 1010.8
20260505011020 22 27 1.6 6.4 0.00 0.00 0.00 63 1010.8
20260505010521 22 177 1.6 6.4 0.00 0.00 0.00 65 1010.8
20260505010026 22 210 0.0 3.2 0.00 0.00 0.00 65 1010.8
20260505005528 22 318 1.6 4.8 0.00 0.00 0.00 64 1010.7
20260505005022 22 3 3.2 4.8 0.00 0.00 0.00 62 1010.8
20260505004520 22 321 1.6 3.2 0.00 0.00 0.00 62 1010.9
20260505004026 22 154 1.6 4.8 0.00 0.00 0.00 62 1010.9
20260505003521 22 157 3.2 4.8 0.00 0.00 0.00 63 1010.9
20260505003044 22 143 1.6 6.4 0.00 0.00 0.00 63 1010.9
20260505002524 22 1 0.0 3.2 0.00 0.00 0.00 62 1011.0
20260505002020 22 184 1.6 4.8 0.00 0.00 0.00 63 1011.0
20260505001519 22 207 1.6 4.8 0.00 0.00 0.00 62 1011.0
20260505001041 22 184 3.2 6.4 0.00 0.00 0.00 63 1011.0
20260505000532 22 333 1.6 3.2 0.00 0.00 0.00 63 1011.0
20260505000020 21 139 1.6 4.8 0.00 0.00 0.00 64 1011.0
20260504235523 21 93 1.6 3.2 0.00 0.00 0.00 64 1011.2
20260504235023 21 256 1.6 3.2 0.00 0.00 0.00 63 1011.2
20260504234520 21 226 1.6 4.8 0.00 0.00 0.00 63 1011.2
20260504234027 21 132 1.6 4.8 0.00 0.00 0.00 63 1011.2
20260504233523 21 214 3.2 6.4 0.00 0.00 0.00 62 1011.2
20260504233024 21 297 1.6 6.4 0.00 0.00 0.00 62 1011.3
20260504232539 21 202 1.6 6.4 0.00 0.00 0.00 63 1011.2
20260504232020 21 239 3.2 6.4 0.00 0.00 0.00 63 1011.2
20260504231527 21 321 3.2 6.4 0.00 0.00 0.00 63 1011.1
20260504231024 21 229 1.6 4.8 0.00 0.00 0.00 63 1011.2
20260504230526 21 324 4.8 8.0 0.00 0.00 0.00 64 1011.4
20260504230024 21 311 3.2 6.4 0.00 0.00 0.00 63 1011.4
20260504225524 21 308 1.6 6.4 0.00 0.00 0.00 64 1011.4
20260504225019 21 193 3.2 6.4 0.00 0.00 0.00 64 1011.5
20260504224520 21 295 1.6 6.4 0.00 0.00 0.00 63 1011.5
20260504224043 21 336 1.6 4.8 0.00 0.00 0.00 64 1011.7
20260504223544 21 264 1.6 4.8 0.00 0.00 0.00 63 1011.7
20260504223019 21 181 1.6 6.4 0.00 0.00 0.00 65 1011.9
20260504222521 21 147 1.6 4.8 0.00 0.00 0.00 63 1011.9
20260504222022 21 353 1.6 6.4 0.00 0.00 0.00 64 1012.0
20260504221519 21 151 1.6 4.8 0.00 0.00 0.00 64 1012.0
20260504221020 21 222 1.6 4.8 0.00 0.00 0.00 66 1012.0
20260504220523 20 328 1.6 4.8 0.00 0.00 0.00 64 1012.1
20260504220021 21 236 1.6 6.4 0.00 0.00 0.00 64 1012.2
20260504215539 20 47 1.6 4.8 0.00 0.00 0.00 65 1012.2
20260504215020 20 330 1.6 3.2 0.00 0.00 0.00 65 1012.2
20260504214525 21 188 1.6 3.2 0.00 0.00 0.00 63 1012.3
20260504214039 21 122 1.6 6.4 0.00 0.00 0.00 64 1012.4
20260504213519 21 51 1.6 3.2 0.00 0.00 0.00 65 1012.4
20260504213022 20 279 1.6 6.4 0.00 0.00 0.00 63 1012.3
20260504212519 20 83 1.6 6.4 0.00 0.00 0.00 64 1012.3
20260504212019 20 17 1.6 4.8 0.00 0.00 0.00 65 1012.5
20260504211522 20 234 1.6 4.8 0.00 0.00 0.00 65 1012.6
20260504211019 20 252 1.6 6.4 0.00 0.00 0.00 65 1012.7
20260504210539 20 273 3.2 6.4 0.00 0.00 0.00 64 1012.7
20260504210031 20 255 3.2 6.4 0.00 0.00 0.00 65 1012.8
20260504205524 20 265 3.2 6.4 0.00 0.00 0.00 67 1012.9
20260504205039 20 96 1.6 4.8 0.00 0.00 0.00 67 1013.0
20260504204526 20 65 1.6 3.2 0.00 0.00 0.00 67 1013.2
20260504204020 20 186 1.6 6.4 0.00 0.00 0.00 66 1013.1
20260504203524 20 282 1.6 4.8 0.00 0.00 0.00 67 1013.1
20260504203040 19 283 3.2 8.0 0.00 0.00 0.00 68 1013.2
20260504202519 19 295 1.6 4.8 0.00 0.00 0.00 68 1013.3
20260504202024 19 103 3.2 6.4 0.00 0.00 0.00 68 1013.3
20260504201519 19 263 3.2 6.4 0.00 0.00 0.00 68 1013.3
20260504201019 19 259 1.6 6.4 0.00 0.00 0.00 70 1013.4
20260504200520 19 238 3.2 6.4 0.00 0.00 0.00 68 1013.5
20260504200024 19 262 1.6 6.4 0.00 0.00 0.00 71 1013.5
20260504195519 18 91 1.6 4.8 0.00 0.00 0.00 72 1013.6
20260504195020 18 252 1.6 4.8 0.00 0.00 0.00 71 1013.7
20260504194524 18 188 3.2 6.4 0.00 0.00 0.00 70 1013.7
20260504194020 18 245 1.6 8.0 0.00 0.00 0.00 72 1013.7
20260504193627 18 179 1.6 8.0 0.00 0.00 0.00 72 1013.7
20260504193021 18 238 3.2 8.0 0.00 0.00 0.00 71 1013.7
20260504192520 17 292 3.2 6.4 0.00 0.00 0.00 73 1013.7
20260504192059 17 241 1.6 6.4 0.00 0.00 0.00 72 1013.7
20260504191520 17 137 1.6 6.4 0.00 0.00 0.00 72 1013.8
20260504191021 17 284 1.6 4.8 0.00 0.00 0.00 74 1013.8
20260504190541 17 239 3.2 4.8 0.00 0.00 0.00 73 1013.9
20260504190021 17 91 1.6 4.8 0.00 0.00 0.00 74 1013.8
20260504185520 17 255 1.6 6.4 0.00 0.00 0.00 74 1013.9
20260504185024 17 136 1.6 4.8 0.00 0.00 0.00 72 1013.9
20260504184519 17 128 0.0 3.2 0.00 0.00 0.00 73 1014.0
20260504184020 17 126 3.2 4.8 0.00 0.00 0.00 74 1014.0
20260504183527 17 64 3.2 6.4 0.00 0.00 0.00 74 1013.9
20260504183024 16 125 1.6 4.8 0.00 0.00 0.00 75 1013.9
20260504182520 16 91 3.2 6.4 0.00 0.00 0.00 76 1013.9
20260504182021 16 229 1.6 4.8 0.00 0.00 0.00 77 1014.0
20260504181539 16 270 1.6 4.8 0.00 0.00 0.00 77 1014.0
20260504181039 15 88 1.6 4.8 0.00 0.00 0.00 79 1014.1
20260504180527 15 245 1.6 3.2 0.00 0.00 0.00 79 1014.0
20260504180027 15 104 1.6 4.8 0.00 0.00 0.00 80 1014.1
20260504175519 15 90 1.6 6.4 0.00 0.00 0.00 80 1014.0
20260504175029 15 88 3.2 8.0 0.00 0.00 0.00 79 1014.0
20260504174520 15 104 1.6 6.4 0.00 0.00 0.00 80 1014.0
20260504174039 15 252 1.6 6.4 0.00 0.00 0.00 79 1014.1
20260504173519 15 227 1.6 6.4 0.00 0.00 0.00 79 1014.0
20260504173028 15 272 1.6 6.4 0.00 0.00 0.00 80 1014.0
20260504172522 15 145 1.6 3.2 0.00 0.00 0.00 78 1014.1
20260504172019 15 159 1.6 4.8 0.00 0.00 0.00 80 1014.0
20260504171519 15 197 1.6 4.8 0.00 0.00 0.00 80 1014.0
20260504171020 15 98 1.6 4.8 0.00 0.00 0.00 80 1013.9
20260504170519 15 277 1.6 4.8 0.00 0.00 0.00 80 1013.9
20260504151039 13 186 1.6 3.2 0.00 0.00 0.00 83 1013.4
20260504150541 13 259 1.6 4.8 0.00 0.00 0.00 84 1013.3
20260504141019 13 88 0.0 3.2 0.00 0.00 0.00 84 1012.7
20260504140519 13 177 1.6 4.8 0.00 0.00 0.00 84 1012.6
20260504130520 13 0.0 1.6 0.00 0.00 0.00 83 1011.5
20260504110519 12 136 1.6 3.2 0.00 0.00 0.00 90 1010.0
20260504100518 12 0.0 0.0 0.00 0.00 0.00 88 1009.4